Newark, NJ

3:08 PM EST on November 15, 2019 (GMT -0500)
Newark International

Weather History for KEWR - August, 2019

Change the Weather History Date:

Monday, August 19, 2019

  Actual Average Record
Temperature  
Mean Temperature 84 °F 76 °F  
Max Temperature 94 °F 84 °F 96 °F (2002)
Min Temperature 73 °F 67 °F 54 °F (1958)
Degree Days  
Heating Degree Days 0 0  
Month to date heating degree days 0 0  
Since 1 June heating degree days 4 17  
Since 1 July heating degree days 0 0  
Cooling Degree Days 19 11  
Month to date cooling degree days 249 220  
Year to date cooling degree days 1068 918  
Since 1 June cooling degree days 983 842  
Growing Degree Days 33 (Base 50)    
Moisture  
Dew Point 70 °F    
Average Humidity 70    
Maximum Humidity 93    
Minimum Humidity 46    
Precipitation  
Precipitation 0.00 in 0.11 in 2.25 in (1960)
Month to date precipitation 4.27 2.48  
Year to date precipitation 40.05 30.15  
Snow  
Snow 0.00 in 0.00 in 0.00 in (2002)
Month to date snowfall 0.0 0.0  
Since 1 July snowfall 0.0 0.0  
Snow Depth 0.00 in    
Sea Level Pressure  
Sea Level Pressure 29.97 in    
Wind  
Wind Speed 7 mph (SW)    
Max Wind Speed 16 mph    
Max Gust Speed 23 mph    
Visibility 10 miles    
Events Thunderstorm    
T = Trace of Precipitation, MM = Missing Value Source: NWS Daily Summary

Daily Weather History Graph

Daily Weather History Graph

Search for Another Location

Airport or City:

Astronomy

Aug. 19, 2019 Rise Set
Actual Time 6:10 AM EDT 7:49 PM EDT
Civil Twilight 5:41 AM EDT 8:18 PM EDT
Nautical Twilight 5:06 AM EDT 8:53 PM EDT
Astronomical Twilight 4:29 AM EDT 9:30 PM EDT
Moon 10:08 PM EDT (8/19) 9:50 AM EDT (8/19)
Length of Visible Light 14h 36m
Length of Day
13h 38m
Waning Gibbous, 85% of the Moon is Illuminated
Aug 19
Waning Gibbous
Aug 23
Last Quarter
Aug 30
New
Sep 5
First Quarter
Sep 14
Full

Hourly Weather History & Observations

Time (EDT) Temp. Heat Index Dew Point Humidity Pressure Visibility Wind Dir Wind Speed Gust Speed Precip Events Conditions
12:51 AM 73.9 °F - 66.0 °F 76% 29.96 in 10.0 mi SW 4.6 mph - N/A   Partly Cloudy
1:51 AM 75.9 °F - 66.9 °F 74% 29.95 in 10.0 mi Calm Calm - N/A   Mostly Cloudy
2:51 AM 75.0 °F - 68.0 °F 79% 29.94 in 10.0 mi Calm Calm - N/A   Mostly Cloudy
3:35 AM 75.0 °F - 66.9 °F 76% 29.96 in 10.0 mi WNW 5.8 mph - N/A   Mostly Cloudy
3:49 AM 75.2 °F - 66.2 °F 73% 29.97 in 10.0 mi NW 4.6 mph - N/A   Overcast
3:51 AM 75.0 °F - 66.9 °F 76% 29.97 in 10.0 mi NW 3.5 mph - N/A   Overcast
4:45 AM 73.4 °F - 68.0 °F 83% 29.97 in 10.0 mi WSW 3.5 mph - N/A   Mostly Cloudy
4:51 AM 75.0 °F - 68.0 °F 79% 29.98 in 10.0 mi WSW 5.8 mph - N/A   Mostly Cloudy
5:34 AM 73.9 °F - 70.0 °F 87% 29.98 in 10.0 mi WSW 5.8 mph - N/A   Mostly Cloudy
5:51 AM 73.9 °F - 70.0 °F 87% 29.99 in 10.0 mi West 6.9 mph - N/A   Mostly Cloudy
6:51 AM 73.9 °F - 71.1 °F 91% 29.99 in 10.0 mi SSW 3.5 mph - N/A   Mostly Cloudy
7:51 AM 77.0 °F - 72.0 °F 84% 29.99 in 10.0 mi SSW 5.8 mph - N/A   Mostly Cloudy
8:16 AM 78.1 °F - 72.0 °F 81% 29.99 in 10.0 mi WSW 5.8 mph - N/A   Mostly Cloudy
8:51 AM 79.0 °F - 72.0 °F 79% 29.99 in 10.0 mi WSW 10.4 mph - N/A   Mostly Cloudy
9:51 AM 81.0 °F 86.2 °F 73.9 °F 79% 29.98 in 10.0 mi SW 9.2 mph - N/A   Scattered Clouds
10:51 AM 84.9 °F 90.7 °F 72.0 °F 65% 29.99 in 10.0 mi West 11.5 mph - N/A   Scattered Clouds
11:51 AM 88.0 °F 93.8 °F 71.1 °F 57% 29.97 in 10.0 mi WSW 5.8 mph 16.1 mph N/A   Scattered Clouds
12:51 PM 88.0 °F 94.7 °F 72.0 °F 59% 29.97 in 10.0 mi SSW 13.8 mph - N/A   Scattered Clouds
1:51 PM 91.9 °F 98.4 °F 71.1 °F 50% 29.96 in 10.0 mi WSW 10.4 mph - N/A   Scattered Clouds
2:51 PM 93.0 °F 99.0 °F 70.0 °F 47% 29.94 in 10.0 mi West 8.1 mph - N/A   Mostly Cloudy
3:51 PM 88.0 °F 97.5 °F 75.0 °F 65% 29.92 in 10.0 mi South 6.9 mph - N/A   Mostly Cloudy
3:55 PM 88.0 °F 97.5 °F 75.0 °F 65% 29.92 in 10.0 mi South 8.1 mph - N/A Thunderstorm Thunderstorm
4:35 PM 87.1 °F 96.3 °F 75.0 °F 67% 29.90 in 10.0 mi SSE 9.2 mph 17.3 mph N/A   Mostly Cloudy
4:51 PM 88.0 °F 96.5 °F 73.9 °F 63% 29.90 in 10.0 mi South 8.1 mph - N/A   Mostly Cloudy
5:51 PM 82.9 °F 87.0 °F 70.0 °F 65% 29.95 in 10.0 mi SSE 9.2 mph 17.3 mph N/A   Mostly Cloudy
6:51 PM 82.0 °F 86.3 °F 71.1 °F 69% 29.97 in 10.0 mi South 9.2 mph - N/A   Mostly Cloudy
7:51 PM 80.1 °F 82.7 °F 68.0 °F 67% 29.97 in 10.0 mi South 5.8 mph - N/A   Scattered Clouds
8:51 PM 79.0 °F - 69.1 °F 72% 29.98 in 10.0 mi SSW 6.9 mph - N/A   Mostly Cloudy
9:51 PM 81.0 °F 84.4 °F 70.0 °F 69% 29.99 in 10.0 mi West 9.2 mph - N/A   Scattered Clouds
10:51 PM 79.0 °F - 70.0 °F 74% 30.00 in 10.0 mi SW 8.1 mph - N/A   Scattered Clouds
11:51 PM 79.0 °F - 71.1 °F 77% 30.01 in 10.0 mi WSW 8.1 mph - N/A   Scattered Clouds